Location: ??????????
(44.2167°N, 135.5333°E)
Time: 15:16:04
(UTC+00:00)

SPOT 3 Rocket - Pass Details

Date: 15 June 2025
Orbit: 776 x 789 km, 98.5° (Epoch: 15 July)

Event Time Altitude Azimuth Distance (km) Brightness Sun altitude
Exits shadow 12:19:44 18° 160° (SSE) 1,839 4.9 -13.3°
Maximum altitude 12:23:37 82° 75° (ENE) 793 3.5 -13.7°
Drops below altitude 10° 12:28:48 10° 348° (NNW) 2,344 7.1 -14.3°
Sets 12:31:08 0° 348° (NNW) 3,279 8.1 -14.5°
